Wind_Speed
58 58 57 57 57 58 55 51 47 44 42 42 41 39 36 34 32 30 27 25 23 21 20 19 17 16 15 15 14 13 12 11 10 9 8 8 7 6 6 5 4 3 2 2 1 2 3 3 4
59 59 59 59 59 59 56 51 49 46 46 46 43 40 38 36 34 31 28 25 24 22 21 20 18 17 16 15 15 14 13 12 11 10 9 9 8 7 6 6 5 4 3 2 2 2 2 3 4
59 59 60 60 60 59 54 51 50 49 48 46 44 42 41 38 36 32 29 27 25 24 22 20 19 18 17 16 15 14 14 13 11 11 10 10 9 8 7 6 5 4 4 3 2 2 2 2 3
58 60 61 61 59 56 53 50 51 51 51 47 45 44 42 39 36 33 31 28 27 25 23 22 20 19 18 16 15 15 14 13 12 11 11 10 9 8 8 7 6 5 4 3 2 2 2 3 4
58 60 61 60 58 54 53 51 50 52 52 48 46 45 42 40 38 35 33 31 28 27 25 23 21 20 19 17 16 15 14 14 13 12 12 11 10 9 8 7 6 5 5 4 3 3 3 3 4
59 60 61 60 57 54 53 53 52 52 52 49 48 46 44 41 39 36 35 33 30 28 26 24 23 21 20 18 17 16 15 14 14 13 13 12 11 10 9 8 7 6 5 5 4 4 4 5 5
60 59 59 57 56 55 54 54 54 51 51 50 49 48 46 43 40 38 37 34 32 29 27 26 24 23 21 20 19 18 16 15 15 14 13 12 11 11 10 9 8 7 6 6 5 5 5 6 6
59 58 57 57 56 55 54 54 53 51 51 51 50 50 47 45 42 40 38 35 33 31 29 27 26 24 23 21 20 19 18 17 16 15 14 13 12 12 11 10 9 8 7 7 7 6 7 7 8
58 58 58 57 54 54 53 55 53 53 52 52 51 51 48 46 43 41 40 37 34 32 30 29 28 26 25 23 22 21 20 19 18 17 16 15 14 13 12 11 10 9 9 8 8 8 9 9 10
57 57 53 53 52 53 53 53 54 55 54 53 52 51 49 47 45 43 40 38 36 34 32 31 29 28 26 25 24 23 21 20 19 18 17 16 15 14 13 13 12 11 11 11 10 10 11 11 12
57 54 52 52 53 54 53 51 53 54 54 53 52 51 49 48 46 44 42 40 38 36 34 32 31 30 28 27 26 25 23 22 21 20 19 18 17 16 15 14 14 13 13 13 13 13 13 13 14
54 53 54 54 55 54 53 50 52 54 54 52 52 53 49 48 47 46 44 42 40 38 36 34 32 31 30 29 27 26 25 24 23 22 21 20 19 18 17 17 16 16 16 15 15 15 16 16 16
52 52 52 55 55 55 53 51 49 52 53 52 52 53 53 51 48 47 45 44 42 40 38 36 34 33 31 30 29 28 27 26 25 24 23 22 21 20 20 19 19 18 18 18 18 18 18 19 19
50 52 53 53 54 55 54 54 51 50 52 52 52 52 52 53 50 48 47 46 44 42 40 38 36 35 33 31 30 29 28 28 27 26 25 25 24 23 22 22 21 21 21 21 21 21 21 22 22
46 51 52 53 54 53 53 54 54 51 52 52 53 52 52 53 52 50 48 47 46 44 42 40 39 37 35 33 32 30 30 29 28 28 27 27 26 25 25 24 24 24 24 24 24 24 24 25 25
42 47 49 50 53 54 53 53 52 53 53 53 53 53 52 53 52 52 50 48 47 46 44 42 40 39 37 35 34 33 32 31 30 30 30 29 29 28 27 27 27 27 27 27 27 27 27 28 28
38 43 45 47 50 52 54 53 52 53 54 53 54 53 53 53 53 52 51 50 49 47 46 44 42 41 39 38 37 36 35 34 33 33 32 32 31 31 30 30 30 30 29 30 30 31 31 31 31
35 36 40 44 46 48 50 52 52 53 53 53 54 54 54 53 53 53 52 52 50 49 48 46 45 43 42 41 40 39 38 37 36 36 35 34 34 34 34 33 34 34 33 33 33 33 34 34 34
31 32 35 39 42 44 46 49 50 51 53 53 54 54 54 53 53 52 53 53 52 50 49 48 47 45 44 43 42 41 40 39 39 38 37 37 37 37 37 36 37 37 37 37 38 37 37 37 37
28 30 32 35 38 41 44 46 49 50 51 52 53 54 53 53 53 53 52 52 52 51 50 49 48 46 45 45 45 44 43 41 41 40 40 40 40 39 40 40 40 40 40 40 41 41 40 40 41
27 27 30 32 34 37 41 45 48 48 50 51 52 52 53 53 52 52 53 52 52 51 50 49 48 48 47 46 45 45 45 44 43 42 42 41 42 42 43 43 43 43 43 43 44 44 44 43 43
25 26 27 30 33 34 38 41 44 46 47 49 50 51 51 52 52 53 53 53 53 52 51 50 49 49 48 47 46 46 46 45 44 44 44 44 44 44 45 45 46 47 47 47 47 47 46 46 46
22 25 26 28 31 32 34 38 40 43 46 47 48 50 51 52 52 52 52 53 53 53 53 51 51 50 49 48 47 47 46 46 46 46 46 46 46 46 46 47 48 49 50 49 49 49 49 49 48
20 23 24 26 29 31 32 35 36 39 42 44 46 48 49 51 51 51 52 52 51 52 52 53 52 51 50 50 49 49 48 48 48 48 48 48 48 48 49 49 50 51 51 51 50 50 50 50 51
19 21 22 24 27 28 29 32 33 34 38 41 43 46 47 49 51 51 51 51 51 51 52 52 53 53 52 52 51 51 51 51 50 50 51 50 50 51 51 52 52 52 52 52 52 52 52 52 52
18 19 20 22 24 25 26 29 30 31 35 38 40 43 45 47 48 48 49 49 49 50 51 52 53 53 53 53 52 52 53 53 53 53 53 53 53 53 53 54 53 53 53 53 53 54 54 54 53
16 17 18 19 20 22 24 26 28 30 32 34 37 39 42 44 45 46 46 47 48 48 49 50 51 52 53 53 54 53 54 53 52 53 54 54 54 54 54 54 54 54 53 53 53 53 53 53 52
14 16 17 17 18 19 21 22 24 27 29 30 33 36 39 41 42 43 44 44 45 46 47 49 50 51 51 51 52 53 53 52 52 52 52 53 53 52 53 52 52 52 53 53 52 52 52 51 51
11 13 15 16 17 18 19 21 23 25 27 28 30 32 35 38 39 41 42 42 43 44 45 46 47 48 50 50 51 52 53 53 52 51 52 52 52 51 51 51 51 51 50 51 51 52 51 51 50
9 10 12 14 16 16 18 19 20 23 26 27 28 30 32 34 36 37 39 40 41 41 42 43 44 45 46 47 48 49 49 50 50 50 50 49 50 50 49 49 49 49 49 49 50 50 50 50 50
Wind_Direction
217 216 215 215 216 216 216 214 212 211 211 210 209 206 206 212 216 220 221 220 221 223 223 224 225 225 224 224 224 224 224 223 221 222 222 223 227 227 225 224 230 239 247 268 313 342 358 3 12
216 216 216 215 215 216 215 213 212 212 213 212 211 211 212 213 217 220 221 220 221 223 223 225 226 225 225 225 225 225 224 223 222 222 223 224 226 227 227 226 231 238 245 261 287 318 344 357 4
215 216 216 216 215 215 214 213 214 214 215 214 212 213 214 214 217 220 221 221 222 223 223 224 226 226 225 226 227 226 225 224 224 224 224 224 225 227 229 229 232 237 244 255 271 296 323 342 350
214 215 216 217 216 215 214 214 216 217 216 215 214 214 215 216 219 220 221 222 223 223 224 224 225 227 226 226 227 227 227 226 226 226 226 225 224 227 229 231 234 239 245 251 261 280 299 322 334
213 214 216 217 216 213 212 212 215 217 216 216 216 217 216 217 219 220 222 223 222 222 223 224 225 227 227 227 227 227 228 227 226 226 226 225 226 228 231 233 237 242 248 257 267 280 294 308 321
212 213 215 215 215 212 211 211 214 216 216 215 217 218 217 216 218 220 221 223 222 222 222 224 225 226 227 228 228 227 227 227 226 226 227 227 228 231 233 236 240 246 253 261 272 283 293 301 311
211 213 215 214 213 212 211 212 214 216 216 215 215 218 217 216 217 219 220 222 221 222 223 224 225 226 227 228 229 228 227 227 226 227 227 228 229 231 234 238 243 250 258 264 273 282 290 298 305
210 212 213 213 212 212 212 212 214 215 217 216 215 217 216 216 216 218 220 221 221 221 224 225 226 227 227 228 229 230 229 229 229 229 230 231 232 235 238 241 247 253 259 266 274 283 291 297 302
210 211 211 211 211 211 213 214 214 215 216 216 217 218 216 216 216 218 220 221 222 222 224 226 227 228 228 229 230 231 231 231 231 232 233 233 235 239 242 246 251 256 261 269 276 283 290 296 300
209 211 210 209 210 211 213 215 215 217 217 217 218 218 218 217 217 219 220 222 223 224 225 227 228 229 229 230 230 232 233 234 235 235 236 237 239 243 246 250 255 260 265 271 277 282 288 293 296
209 209 206 208 209 210 212 214 215 218 218 218 218 219 219 218 218 219 220 221 223 224 225 227 229 230 231 232 232 233 234 236 237 238 239 241 243 246 249 254 258 263 267 271 276 280 285 289 293
209 208 208 208 210 209 210 212 215 217 218 218 219 219 218 218 218 219 220 222 223 224 225 228 230 231 233 234 234 234 235 237 239 240 241 242 245 248 251 255 260 264 268 272 276 280 283 287 291
208 206 208 208 210 209 210 211 213 215 217 218 220 219 219 217 217 218 220 221 223 225 226 227 229 231 233 235 236 237 238 239 241 242 244 246 247 249 252 256 261 265 269 272 276 280 283 287 290
208 208 209 209 210 210 211 212 213 215 218 218 218 219 219 219 217 218 220 221 223 224 225 226 229 231 234 237 239 240 241 242 243 245 247 249 251 253 255 259 263 266 270 274 277 280 283 286 289
208 209 211 211 210 211 211 213 214 214 217 219 219 218 219 220 219 219 220 222 224 225 226 226 229 232 235 238 241 243 245 246 246 247 249 251 253 255 258 261 264 267 271 275 278 281 283 285 287
208 210 211 211 212 212 212 213 213 214 217 220 221 220 219 220 221 221 221 222 224 226 228 229 231 233 236 239 242 244 246 248 250 251 252 253 255 257 260 263 266 269 272 275 278 280 282 284 286
208 212 213 214 214 214 215 215 215 217 218 220 221 221 221 220 221 223 223 224 224 226 229 231 233 234 236 239 242 245 247 249 251 253 254 256 258 260 262 265 267 270 273 275 277 279 281 283 285
209 211 214 216 218 219 219 218 219 219 219 220 221 222 222 222 222 223 224 225 226 227 229 231 234 236 238 240 242 244 248 250 252 254 255 257 259 262 264 266 269 271 274 276 277 279 281 283 284
210 212 215 217 219 222 221 221 221 221 220 220 221 222 223 223 223 223 224 226 227 228 230 232 234 236 239 242 244 246 248 251 253 255 257 259 261 263 266 268 270 272 275 276 278 279 280 281 283
209 212 214 217 219 222 223 223 223 222 222 223 222 222 223 224 225 225 225 226 228 230 232 233 236 238 240 243 245 248 250 252 254 256 258 260 262 265 266 268 270 273 275 276 278 279 279 281 282
210 213 215 217 218 220 223 225 224 224 224 224 224 223 224 225 227 228 228 228 229 231 233 235 237 239 241 244 246 248 250 251 254 256 259 261 263 265 266 268 271 273 274 275 277 277 278 279 281
212 215 216 220 221 223 225 227 225 225 225 225 225 225 226 227 228 230 230 231 232 233 235 236 238 240 242 244 246 249 250 252 254 257 259 261 263 265 266 268 270 272 273 274 275 276 276 279 280
214 215 218 221 224 227 228 231 228 228 227 227 227 227 228 229 229 231 232 234 233 234 235 237 239 241 243 244 246 248 250 252 255 257 259 261 263 265 266 267 268 270 272 273 274 274 276 278 279
213 215 218 221 225 229 230 234 232 230 230 229 228 228 229 230 231 232 233 235 235 236 236 238 239 241 244 245 247 249 251 253 255 257 259 260 262 264 266 268 269 270 272 272 273 274 276 278 278
210 214 218 220 225 232 233 237 235 232 232 231 230 229 231 232 233 234 234 236 237 238 238 240 240 242 244 246 248 250 251 253 255 257 259 262 263 265 267 268 270 270 271 272 273 274 276 278 278
206 210 216 224 229 233 235 240 237 234 234 232 232 231 232 233 234 236 236 237 238 239 240 242 242 244 245 246 249 251 253 255 256 258 261 263 264 266 267 268 270 271 271 271 273 274 274 276 277
204 209 216 226 233 237 240 242 240 237 235 234 233 232 233 234 235 236 238 239 240 241 242 243 245 246 247 249 250 252 254 255 257 259 261 263 265 265 267 269 271 271 272 273 273 273 274 276 277
205 209 215 224 234 241 242 242 243 238 237 237 235 235 234 235 235 237 239 240 241 241 243 244 245 246 248 250 251 252 254 256 258 260 262 264 264 265 266 268 270 271 272 273 274 274 275 276 278
207 214 220 230 237 243 247 245 243 242 241 240 238 237 236 236 237 238 239 240 241 242 243 244 246 247 249 251 253 254 255 257 259 260 262 264 265 266 268 269 270 272 274 274 274 275 275 276 277
209 220 230 235 239 245 251 249 245 246 244 242 239 237 237 236 237 238 239 240 241 242 243 244 246 249 250 251 253 255 256 258 260 261 263 266 267 268 269 271 272 273 274 275 275 276 276 277 278
Height
5754 5760 5766 5772 5778 5784 5793 5806 5813 5819 5824 5829 5833 5838 5841 5844 5848 5854 5856 5860 5863 5865 5868 5870 5873 5875 5877 5879 5881 5882 5884 5885 5887 5888 5889 5891 5891 5892 5893 5894 5894 5894 5894 5894 5894 5894 5894 5894 5894
5744 5751 5757 5763 5769 5777 5790 5800 5806 5813 5817 5822 5828 5834 5838 5840 5844 5848 5853 5857 5860 5863 5866 5868 5871 5873 5875 5877 5879 5881 5883 5884 5885 5887 5888 5889 5890 5891 5892 5893 5893 5893 5894 5894 5894 5894 5894 5894 5893
5734 5741 5749 5754 5761 5772 5787 5795 5801 5806 5810 5817 5824 5829 5832 5836 5840 5845 5850 5854 5857 5860 5863 5866 5868 5871 5873 5875 5877 5879 5881 5882 5884 5885 5887 5888 5889 5890 5891 5891 5892 5892 5893 5893 5893 5893 5893 5893 5893
5726 5733 5740 5747 5756 5770 5782 5790 5794 5798 5804 5812 5819 5823 5827 5833 5837 5843 5847 5851 5854 5857 5860 5863 5866 5869 5871 5873 5875 5877 5879 5881 5882 5884 5885 5887 5888 5889 5890 5890 5891 5891 5892 5892 5892 5892 5892 5892 5892
5717 5724 5731 5740 5752 5765 5774 5780 5784 5791 5798 5807 5813 5818 5823 5828 5833 5839 5843 5847 5851 5854 5857 5860 5863 5866 5869 5871 5873 5875 5877 5879 5880 5882 5884 5885 5886 5887 5888 5889 5890 5890 5891 5891 5891 5891 5891 5891 5891
5708 5715 5724 5734 5748 5759 5766 5772 5777 5784 5793 5800 5806 5811 5817 5823 5829 5834 5838 5843 5847 5851 5854 5857 5860 5863 5866 5869 5871 5873 5875 5877 5879 5880 5882 5883 5884 5886 5887 5887 5888 5889 5889 5889 5890 5890 5890 5890 5889
5700 5709 5718 5731 5742 5751 5759 5765 5772 5779 5786 5793 5799 5804 5810 5818 5824 5829 5833 5838 5843 5847 5851 5854 5857 5860 5863 5866 5868 5871 5873 5875 5876 5878 5880 5881 5882 5884 5885 5886 5887 5887 5888 5888 5888 5888 5888 5888 5888
5693 5702 5712 5723 5734 5744 5753 5759 5766 5773 5779 5786 5792 5797 5804 5813 5819 5824 5829 5833 5839 5843 5847 5851 5854 5857 5860 5863 5866 5868 5870 5872 5874 5876 5878 5879 5880 5882 5883 5884 5885 5885 5886 5886 5886 5887 5886 5886 5886
5685 5694 5704 5717 5728 5739 5746 5752 5759 5765 5772 5779 5785 5791 5800 5807 5814 5819 5824 5829 5834 5839 5843 5847 5851 5854 5857 5860 5862 5865 5867 5869 5871 5873 5875 5877 5878 5879 5880 5881 5882 5883 5884 5884 5884 5885 5884 5884 5884
5676 5687 5701 5714 5723 5731 5738 5744 5752 5758 5766 5773 5779 5787 5795 5802 5809 5814 5820 5825 5830 5835 5839 5843 5847 5850 5853 5856 5859 5862 5864 5866 5868 5870 5872 5874 5875 5877 5878 5879 5880 5881 5881 5882 5882 5882 5882 5882 5881
5671 5684 5697 5706 5713 5719 5727 5735 5744 5751 5759 5767 5775 5783 5790 5797 5803 5809 5815 5820 5826 5830 5835 5839 5842 5846 5849 5853 5855 5858 5860 5863 5865 5867 5869 5871 5872 5874 5875 5876 5877 5878 5878 5879 5879 5879 5879 5879 5879
5668 5679 5688 5696 5702 5711 5720 5728 5737 5744 5753 5761 5768 5775 5783 5790 5797 5803 5809 5815 5820 5825 5830 5834 5838 5842 5845 5848 5851 5854 5857 5859 5861 5863 5865 5867 5869 5870 5871 5873 5874 5874 5875 5875 5876 5876 5876 5876 5875
5663 5673 5680 5687 5695 5705 5714 5722 5729 5737 5746 5753 5760 5768 5777 5784 5791 5797 5803 5809 5815 5820 5825 5829 5833 5837 5840 5844 5847 5850 5852 5855 5857 5859 5861 5863 5865 5866 5868 5869 5870 5871 5871 5871 5872 5872 5872 5872 5871
5658 5666 5673 5681 5691 5700 5708 5716 5722 5731 5739 5746 5754 5763 5770 5777 5784 5791 5797 5803 5809 5814 5819 5824 5828 5832 5836 5839 5842 5845 5848 5850 5852 5854 5856 5858 5860 5862 5863 5864 5865 5866 5867 5867 5867 5868 5868 5867 5867
5653 5661 5668 5676 5684 5693 5701 5709 5718 5727 5733 5740 5748 5756 5763 5770 5778 5785 5791 5797 5803 5808 5813 5818 5823 5827 5830 5834 5837 5840 5843 5845 5848 5850 5852 5853 5855 5857 5858 5859 5860 5861 5862 5862 5863 5863 5863 5863 5862
5649 5656 5664 5672 5680 5687 5696 5704 5713 5719 5725 5733 5741 5749 5756 5764 5771 5778 5785 5791 5797 5802 5807 5812 5817 5821 5825 5828 5831 5834 5837 5840 5842 5844 5846 5848 5850 5852 5853 5854 5855 5856 5857 5857 5857 5857 5857 5857 5857
5645 5652 5661 5668 5674 5681 5689 5698 5706 5712 5719 5727 5735 5743 5750 5757 5765 5772 5778 5785 5791 5796 5801 5806 5811 5815 5819 5822 5825 5828 5831 5834 5836 5838 5841 5842 5844 5846 5847 5849 5849 5850 5851 5851 5851 5851 5851 5851 5851
5643 5650 5657 5663 5670 5676 5684 5692 5698 5705 5712 5721 5728 5736 5743 5751 5758 5765 5771 5777 5784 5789 5795 5800 5805 5809 5812 5815 5819 5822 5825 5827 5830 5832 5834 5836 5838 5840 5841 5842 5843 5844 5845 5845 5845 5845 5844 5844 5844
5641 5647 5653 5660 5666 5672 5679 5686 5692 5698 5706 5713 5721 5729 5736 5744 5751 5757 5763 5770 5777 5782 5788 5793 5797 5802 5805 5809 5812 5815 5818 5821 5823 5825 5827 5829 5831 5833 5834 5835 5836 5837 5837 5838 5838 5838 5837 5837 5836
5638 5644 5650 5656 5662 5668 5674 5680 5685 5692 5700 5708 5715 5723 5730 5737 5744 5750 5756 5763 5769 5775 5781 5785 5790 5794 5798 5802 5805 5809 5811 5813 5816 5818 5820 5822 5823 5825 5826 5827 5828 5829 5829 5830 5830 5830 5829 5829 5828
5636 5642 5648 5653 5658 5663 5668 5674 5680 5687 5694 5701 5708 5716 5723 5730 5737 5743 5749 5756 5762 5768 5773 5778 5783 5787 5790 5794 5798 5801 5803 5805 5808 5810 5812 5814 5815 5817 5818 5819 5820 5821 5821 5821 5821 5821 5821 5820 5820
5634 5639 5644 5649 5655 5659 5664 5669 5676 5682 5688 5695 5703 5710 5717 5723 5729 5735 5741 5748 5754 5760 5765 5770 5774 5778 5782 5786 5789 5792 5795 5797 5800 5802 5804 5805 5806 5808 5809 5810 5811 5812 5812 5812 5812 5812 5812 5811 5810
5632 5636 5641 5646 5650 5655 5660 5664 5672 5676 5682 5690 5697 5704 5710 5716 5722 5728 5734 5740 5746 5751 5756 5761 5765 5769 5773 5777 5780 5784 5787 5789 5791 5793 5795 5797 5798 5799 5800 5801 5801 5802 5802 5803 5803 5802 5802 5801 5801
5629 5634 5639 5643 5646 5652 5657 5660 5666 5671 5678 5685 5691 5697 5702 5707 5713 5719 5725 5731 5736 5742 5747 5752 5756 5761 5764 5768 5771 5774 5777 5779 5781 5784 5785 5787 5788 5790 5790 5791 5791 5792 5792 5792 5792 5792 5792 5791 5790
5628 5633 5637 5639 5643 5648 5652 5655 5662 5668 5673 5678 5684 5690 5694 5700 5706 5711 5717 5722 5728 5733 5738 5742 5747 5751 5755 5758 5761 5764 5767 5769 5771 5773 5775 5777 5778 5779 5780 5781 5781 5781 5782 5782 5781 5781 5781 5780 5779
5627 5631 5636 5638 5641 5645 5647 5650 5657 5662 5666 5671 5677 5682 5687 5692 5698 5703 5708 5714 5719 5724 5728 5733 5737 5741 5745 5748 5751 5754 5756 5759 5761 5763 5765 5766 5767 5768 5769 5769 5770 5770 5770 5770 5770 5770 5770 5769 5768
5626 5629 5633 5636 5638 5641 5644 5648 5652 5656 5660 5665 5669 5674 5679 5684 5690 5694 5700 5705 5710 5715 5719 5723 5727 5731 5734 5738 5741 5743 5746 5748 5750 5752 5753 5755 5756 5757 5758 5758 5758 5759 5758 5758 5758 5758 5758 5757 5756
5626 5628 5631 5633 5635 5638 5641 5644 5647 5650 5654 5658 5662 5667 5672 5676 5682 5686 5691 5696 5700 5705 5709 5713 5717 5721 5724 5727 5730 5733 5735 5737 5739 5741 5742 5743 5744 5745 5746 5746 5747 5747 5747 5747 5747 5747 5746 5745 5745
5626 5628 5629 5631 5633 5635 5637 5642 5642 5645 5648 5652 5656 5660 5664 5668 5673 5678 5682 5687 5691 5695 5699 5703 5707 5710 5714 5717 5719 5722 5724 5726 5728 5729 5731 5732 5733 5733 5734 5734 5735 5735 5735 5735 5735 5734 5734 5733 5732
5625 5626 5628 5629 5630 5631 5632 5638 5639 5641 5643 5646 5649 5653 5656 5661 5665 5669 5674 5678 5682 5686 5690 5693 5697 5700 5703 5706 5709 5711 5713 5715 5717 5719 5720 5721 5721 5722 5722 5723 5723 5723 5723 5723 5722 5722 5721 5720 5720